Year,Month,Day,Hour,Minute,Value (Times are PST for temperature in C)
2017,03,15,00,00,7.70
2017,03,15,00,01,7.70
2017,03,15,00,02,7.60
2017,03,15,00,03,7.50
2017,03,15,00,04,7.50
2017,03,15,00,05,7.40
2017,03,15,00,06,7.50
2017,03,15,00,07,7.50
2017,03,15,00,08,7.60
2017,03,15,00,09,7.60
2017,03,15,00,10,7.50
2017,03,15,00,11,7.50
2017,03,15,00,12,7.40
2017,03,15,00,13,7.40
2017,03,15,00,14,7.50
2017,03,15,00,15,7.50
2017,03,15,00,16,7.60
2017,03,15,00,17,7.70
2017,03,15,00,18,7.80
2017,03,15,00,19,7.80
2017,03,15,00,20,7.80
2017,03,15,00,21,7.80
2017,03,15,00,22,7.80
2017,03,15,00,23,7.80
2017,03,15,00,24,7.80
2017,03,15,00,25,7.80
2017,03,15,00,26,7.70
2017,03,15,00,27,7.70
2017,03,15,00,28,7.70
2017,03,15,00,29,7.70
2017,03,15,00,30,7.70
2017,03,15,00,31,7.70
2017,03,15,00,32,7.70
2017,03,15,00,33,7.70
2017,03,15,00,34,7.60
2017,03,15,00,35,7.60
2017,03,15,00,36,7.60
2017,03,15,00,37,7.60
2017,03,15,00,38,7.60
2017,03,15,00,39,7.60
2017,03,15,00,40,7.60
2017,03,15,00,41,7.50
2017,03,15,00,42,7.50
2017,03,15,00,43,7.50
2017,03,15,00,44,7.50
2017,03,15,00,45,7.40
2017,03,15,00,46,7.40
2017,03,15,00,47,7.30
2017,03,15,00,48,7.30
2017,03,15,00,49,7.20
2017,03,15,00,50,7.20
2017,03,15,00,51,7.20
2017,03,15,00,52,7.20
2017,03,15,00,53,7.20
2017,03,15,00,54,7.20
2017,03,15,00,55,7.20
2017,03,15,00,56,7.20
2017,03,15,00,57,7.20
2017,03,15,00,58,7.20
2017,03,15,00,59,7.10
2017,03,15,01,00,7.10
2017,03,15,01,01,7.00
2017,03,15,01,02,7.00
2017,03,15,01,03,7.00
2017,03,15,01,04,7.00
2017,03,15,01,05,6.90
2017,03,15,01,06,6.90
2017,03,15,01,07,6.90
2017,03,15,01,08,6.90
2017,03,15,01,09,6.80
2017,03,15,01,10,6.80
2017,03,15,01,11,6.80
2017,03,15,01,12,6.80
2017,03,15,01,13,6.80
2017,03,15,01,14,6.80
2017,03,15,01,15,6.80
2017,03,15,01,16,6.80
2017,03,15,01,17,6.70
2017,03,15,01,18,6.70
2017,03,15,01,19,6.70
2017,03,15,01,20,6.70
2017,03,15,01,21,6.60
2017,03,15,01,22,6.60
2017,03,15,01,23,6.60
2017,03,15,01,24,6.50
2017,03,15,01,25,6.50
2017,03,15,01,26,6.40
2017,03,15,01,27,6.30
2017,03,15,01,28,6.30
2017,03,15,01,29,6.20
2017,03,15,01,30,6.20
2017,03,15,01,31,6.10
2017,03,15,01,32,6.00
2017,03,15,01,33,6.00
2017,03,15,01,34,5.90
2017,03,15,01,35,5.90
2017,03,15,01,36,5.90
2017,03,15,01,37,5.90
2017,03,15,01,38,5.90
2017,03,15,01,39,5.90
2017,03,15,01,40,5.90
2017,03,15,01,41,5.90
2017,03,15,01,42,5.90
2017,03,15,01,43,5.90
2017,03,15,01,44,5.90
2017,03,15,01,45,5.90
2017,03,15,01,46,5.90
2017,03,15,01,47,5.90
2017,03,15,01,48,5.90
2017,03,15,01,49,5.90
2017,03,15,01,50,5.80
2017,03,15,01,51,5.80
2017,03,15,01,52,5.80
2017,03,15,01,53,5.80
2017,03,15,01,54,5.80
2017,03,15,01,55,5.70
2017,03,15,01,56,5.70
2017,03,15,01,57,5.70
2017,03,15,01,58,5.70
2017,03,15,01,59,5.60
2017,03,15,02,00,5.60
2017,03,15,02,01,5.50
2017,03,15,02,02,5.50
2017,03,15,02,03,5.50
2017,03,15,02,04,5.40
2017,03,15,02,05,5.40
2017,03,15,02,06,5.40
2017,03,15,02,07,5.40
2017,03,15,02,08,5.40
2017,03,15,02,09,5.40
2017,03,15,02,10,5.40
2017,03,15,02,11,5.40
2017,03,15,02,12,5.40
2017,03,15,02,13,5.40
2017,03,15,02,14,5.30
2017,03,15,02,15,5.30
2017,03,15,02,16,5.30
2017,03,15,02,17,5.30
2017,03,15,02,18,5.30
2017,03,15,02,19,5.30
2017,03,15,02,20,5.20
2017,03,15,02,21,5.20
2017,03,15,02,22,5.20
2017,03,15,02,23,5.20
2017,03,15,02,24,5.10
2017,03,15,02,25,5.10
2017,03,15,02,26,5.10
2017,03,15,02,27,5.10
2017,03,15,02,28,5.00
2017,03,15,02,29,5.00
2017,03,15,02,30,5.00
2017,03,15,02,31,5.00
2017,03,15,02,32,5.00
2017,03,15,02,33,4.90
2017,03,15,02,34,4.90
2017,03,15,02,35,4.90
2017,03,15,02,36,4.90
2017,03,15,02,37,4.90
2017,03,15,02,38,4.90
2017,03,15,02,39,4.90
2017,03,15,02,40,4.90
2017,03,15,02,41,4.90
2017,03,15,02,42,4.90
2017,03,15,02,43,4.90
2017,03,15,02,44,4.90
2017,03,15,02,45,4.90
2017,03,15,02,46,4.90
2017,03,15,02,47,4.90
2017,03,15,02,48,4.90
2017,03,15,02,49,4.90
2017,03,15,02,50,5.00
2017,03,15,02,51,5.00
2017,03,15,02,52,5.00
2017,03,15,02,53,5.00
2017,03,15,02,54,5.10
2017,03,15,02,55,5.10
2017,03,15,02,56,5.10
2017,03,15,02,57,5.10
2017,03,15,02,58,5.10
2017,03,15,02,59,5.10
2017,03,15,03,00,5.10
2017,03,15,03,01,5.00
2017,03,15,03,02,5.00
2017,03,15,03,03,5.00
2017,03,15,03,04,5.00
2017,03,15,03,05,4.90
2017,03,15,03,06,4.90
2017,03,15,03,07,4.90
2017,03,15,03,08,4.80
2017,03,15,03,09,4.80
2017,03,15,03,10,4.80
2017,03,15,03,11,4.80
2017,03,15,03,12,4.70
2017,03,15,03,13,4.70
2017,03,15,03,14,4.70
2017,03,15,03,15,4.70
2017,03,15,03,16,4.60
2017,03,15,03,17,4.60
2017,03,15,03,18,4.60
2017,03,15,03,19,4.60
2017,03,15,03,20,4.60
2017,03,15,03,21,4.50
2017,03,15,03,22,4.50
2017,03,15,03,23,4.50
2017,03,15,03,24,4.50
2017,03,15,03,25,4.50
2017,03,15,03,26,4.40
2017,03,15,03,27,4.40
2017,03,15,03,28,4.40
2017,03,15,03,29,4.40
2017,03,15,03,30,4.40
2017,03,15,03,31,4.30
2017,03,15,03,32,4.30
2017,03,15,03,33,4.30
2017,03,15,03,34,4.30
2017,03,15,03,35,4.30
2017,03,15,03,36,4.30
2017,03,15,03,37,4.40
2017,03,15,03,38,4.40
2017,03,15,03,39,4.40
2017,03,15,03,40,4.40
2017,03,15,03,41,4.50
2017,03,15,03,42,4.50
2017,03,15,03,43,4.50
2017,03,15,03,44,4.50
2017,03,15,03,45,4.50
2017,03,15,03,46,4.50
2017,03,15,03,47,4.50
2017,03,15,03,48,4.50
2017,03,15,03,49,4.50
2017,03,15,03,50,4.50
2017,03,15,03,51,4.40
2017,03,15,03,52,4.40
2017,03,15,03,53,4.40
2017,03,15,03,54,4.40
2017,03,15,03,55,4.40
2017,03,15,03,56,4.40
2017,03,15,03,57,4.40
2017,03,15,03,58,4.30
2017,03,15,03,59,4.30
2017,03,15,04,00,4.30
2017,03,15,04,01,4.30
2017,03,15,04,02,4.30
2017,03,15,04,03,4.20
2017,03,15,04,04,4.20
2017,03,15,04,05,4.20
2017,03,15,04,06,4.20
2017,03,15,04,07,4.10
2017,03,15,04,08,4.10
2017,03,15,04,09,4.10
2017,03,15,04,10,4.10
2017,03,15,04,11,4.10
2017,03,15,04,12,4.10
2017,03,15,04,13,4.00
2017,03,15,04,14,4.00
2017,03,15,04,15,4.00
2017,03,15,04,16,4.00
2017,03,15,04,17,3.90
2017,03,15,04,18,3.90
2017,03,15,04,19,3.90
2017,03,15,04,20,3.90
2017,03,15,04,21,3.80
2017,03,15,04,22,3.80
2017,03,15,04,23,3.80
2017,03,15,04,24,3.80
2017,03,15,04,25,3.70
2017,03,15,04,26,3.70
2017,03,15,04,27,3.70
2017,03,15,04,28,3.60
2017,03,15,04,29,3.60
2017,03,15,04,30,3.60
2017,03,15,04,31,3.60
2017,03,15,04,32,3.60
2017,03,15,04,33,3.60
2017,03,15,04,34,3.50
2017,03,15,04,35,3.50
2017,03,15,04,36,3.60
2017,03,15,04,37,3.60
2017,03,15,04,38,3.60
2017,03,15,04,39,3.60
2017,03,15,04,40,3.60
2017,03,15,04,41,3.60
2017,03,15,04,42,3.60
2017,03,15,04,43,3.60
2017,03,15,04,44,3.60
2017,03,15,04,45,3.60
2017,03,15,04,46,3.70
2017,03,15,04,47,3.70
2017,03,15,04,48,3.70
2017,03,15,04,49,3.70
2017,03,15,04,50,3.70
2017,03,15,04,51,3.70
2017,03,15,04,52,3.70
2017,03,15,04,53,3.80
2017,03,15,04,54,3.80
2017,03,15,04,55,3.80
2017,03,15,04,56,3.80
2017,03,15,04,57,3.80
2017,03,15,04,58,3.80
2017,03,15,04,59,3.80
2017,03,15,05,00,3.90
2017,03,15,05,01,3.90
2017,03,15,05,02,3.90
2017,03,15,05,03,3.90
2017,03,15,05,04,3.90
2017,03,15,05,05,3.90
2017,03,15,05,06,3.90
2017,03,15,05,07,3.90
2017,03,15,05,08,3.90
2017,03,15,05,09,3.90
2017,03,15,05,10,3.90
2017,03,15,05,11,3.90
2017,03,15,05,12,3.80
2017,03,15,05,13,3.80
2017,03,15,05,14,3.80
2017,03,15,05,15,3.90
2017,03,15,05,16,3.90
2017,03,15,05,17,3.90
2017,03,15,05,18,3.90
2017,03,15,05,19,3.90
2017,03,15,05,20,4.00
2017,03,15,05,21,4.00
2017,03,15,05,22,4.00
2017,03,15,05,23,4.00
2017,03,15,05,24,4.00
2017,03,15,05,25,4.00
2017,03,15,05,26,4.00
2017,03,15,05,27,4.00
2017,03,15,05,28,4.00
2017,03,15,05,29,4.00
2017,03,15,05,30,4.00
2017,03,15,05,31,4.10
2017,03,15,05,32,4.10
2017,03,15,05,33,4.10
2017,03,15,05,34,4.10
2017,03,15,05,35,4.20
2017,03,15,05,36,4.20
2017,03,15,05,37,4.20
2017,03,15,05,38,4.30
2017,03,15,05,39,4.30
2017,03,15,05,40,4.30
2017,03,15,05,41,4.30
2017,03,15,05,42,4.30
2017,03,15,05,43,4.30
2017,03,15,05,44,4.40
2017,03,15,05,45,4.40
2017,03,15,05,46,4.40
2017,03,15,05,47,4.40
2017,03,15,05,48,4.40
2017,03,15,05,49,4.50
2017,03,15,05,50,4.50
2017,03,15,05,51,4.40
2017,03,15,05,52,4.40
2017,03,15,05,53,4.40
2017,03,15,05,54,4.40
2017,03,15,05,55,4.40
2017,03,15,05,56,4.40
2017,03,15,05,57,4.40
2017,03,15,05,58,4.40
2017,03,15,05,59,4.30
2017,03,15,06,00,4.30
2017,03,15,06,01,4.30
2017,03,15,06,02,4.30
2017,03,15,06,03,4.30
2017,03,15,06,04,4.30
2017,03,15,06,05,4.30
2017,03,15,06,06,4.30
2017,03,15,06,07,4.30
2017,03,15,06,08,4.30
2017,03,15,06,09,4.30
2017,03,15,06,10,4.30
2017,03,15,06,11,4.20
2017,03,15,06,12,4.20
2017,03,15,06,13,4.20
2017,03,15,06,14,4.20
2017,03,15,06,15,4.20
2017,03,15,06,16,4.20
2017,03,15,06,17,4.20
2017,03,15,06,18,4.20
2017,03,15,06,19,4.20
2017,03,15,06,20,4.20
2017,03,15,06,21,4.20
2017,03,15,06,22,4.20
2017,03,15,06,23,4.20
2017,03,15,06,24,4.20
2017,03,15,06,25,4.10
2017,03,15,06,26,4.10
2017,03,15,06,27,4.10
2017,03,15,06,28,4.10
2017,03,15,06,29,4.10
2017,03,15,06,30,4.10
2017,03,15,06,31,4.00
2017,03,15,06,32,4.00
2017,03,15,06,33,3.90
2017,03,15,06,34,3.90
2017,03,15,06,35,3.90
2017,03,15,06,36,3.90
2017,03,15,06,37,3.90
2017,03,15,06,38,3.80
2017,03,15,06,39,3.80
2017,03,15,06,40,3.80
2017,03,15,06,41,3.80
2017,03,15,06,42,3.80
2017,03,15,06,43,3.80
2017,03,15,06,44,3.80
2017,03,15,06,45,3.70
2017,03,15,06,46,3.70
2017,03,15,06,47,3.70
2017,03,15,06,48,3.70
2017,03,15,06,49,3.70
2017,03,15,06,50,3.60
2017,03,15,06,51,3.60
2017,03,15,06,52,3.60
2017,03,15,06,53,3.60
2017,03,15,06,54,3.60
2017,03,15,06,55,3.60
2017,03,15,06,56,3.60
2017,03,15,06,57,3.50
2017,03,15,06,58,3.50
2017,03,15,06,59,3.50
2017,03,15,07,00,3.40
2017,03,15,07,01,3.40
2017,03,15,07,02,3.40
2017,03,15,07,03,3.40
2017,03,15,07,04,3.30
2017,03,15,07,05,3.30
2017,03,15,07,06,3.30
2017,03,15,07,07,3.30
2017,03,15,07,08,3.30
2017,03,15,07,09,3.30
2017,03,15,07,10,3.30
2017,03,15,07,11,3.30
2017,03,15,07,12,3.30
2017,03,15,07,13,3.30
2017,03,15,07,14,3.30
2017,03,15,07,15,3.30
2017,03,15,07,16,3.30
2017,03,15,07,17,3.30
2017,03,15,07,18,3.30
2017,03,15,07,19,3.30
2017,03,15,07,20,3.30
2017,03,15,07,21,3.30
2017,03,15,07,22,3.30
2017,03,15,07,23,3.30
2017,03,15,07,24,3.30
2017,03,15,07,25,3.20
2017,03,15,07,26,3.20
2017,03,15,07,27,3.20
2017,03,15,07,28,3.20
2017,03,15,07,29,3.20
2017,03,15,07,30,3.20
2017,03,15,07,31,3.20
2017,03,15,07,32,3.20
2017,03,15,07,33,3.20
2017,03,15,07,34,3.20
2017,03,15,07,35,3.10
2017,03,15,07,36,3.10
2017,03,15,07,37,3.10
2017,03,15,07,38,3.10
2017,03,15,07,39,3.10
2017,03,15,07,40,3.10
2017,03,15,07,41,3.10
2017,03,15,07,42,3.10
2017,03,15,07,43,3.10
2017,03,15,07,44,3.10
2017,03,15,07,45,3.10
2017,03,15,07,46,3.10
2017,03,15,07,47,3.10
2017,03,15,07,48,3.10
2017,03,15,07,49,3.10
2017,03,15,07,50,3.10
2017,03,15,07,51,3.10
2017,03,15,07,52,3.10
2017,03,15,07,53,3.10
2017,03,15,07,54,3.20
2017,03,15,07,55,3.20
2017,03,15,07,56,3.20
2017,03,15,07,57,3.20
2017,03,15,07,58,3.20
2017,03,15,07,59,3.20
2017,03,15,08,00,3.20
2017,03,15,08,01,3.20
2017,03,15,08,02,3.20
2017,03,15,08,03,3.20
2017,03,15,08,04,3.20
2017,03,15,08,05,3.30
2017,03,15,08,06,3.30
2017,03,15,08,07,3.40
2017,03,15,08,08,3.40
2017,03,15,08,09,3.40
2017,03,15,08,10,3.50
2017,03,15,08,11,3.50
2017,03,15,08,12,3.50
2017,03,15,08,13,3.60
2017,03,15,08,14,3.60
2017,03,15,08,15,3.60
2017,03,15,08,16,3.60
2017,03,15,08,17,3.60
2017,03,15,08,18,3.60
2017,03,15,08,19,3.60
2017,03,15,08,20,3.60
2017,03,15,08,21,3.60
2017,03,15,08,22,3.60
2017,03,15,08,23,3.60
2017,03,15,08,24,3.60
2017,03,15,08,25,3.60
2017,03,15,08,26,3.60
2017,03,15,08,27,3.60
2017,03,15,08,28,3.70
2017,03,15,08,29,3.70
2017,03,15,08,30,3.70
2017,03,15,08,31,3.70
2017,03,15,08,32,3.70
2017,03,15,08,33,3.70
2017,03,15,08,34,3.80
2017,03,15,08,35,3.80
2017,03,15,08,36,3.80
2017,03,15,08,37,3.80
2017,03,15,08,38,3.80
2017,03,15,08,39,3.80
2017,03,15,08,40,3.80
2017,03,15,08,41,3.80
2017,03,15,08,42,3.90
2017,03,15,08,43,3.90
2017,03,15,08,44,3.90
2017,03,15,08,45,3.90
2017,03,15,08,46,3.90
2017,03,15,08,47,3.90
2017,03,15,08,48,4.00
2017,03,15,08,49,4.00
2017,03,15,08,50,4.00
2017,03,15,08,51,4.10
2017,03,15,08,52,4.10
2017,03,15,08,53,4.10
2017,03,15,08,54,4.20
2017,03,15,08,55,4.20
2017,03,15,08,56,4.20
2017,03,15,08,57,4.30
2017,03,15,08,58,4.30
2017,03,15,08,59,4.30
2017,03,15,09,00,4.40
2017,03,15,09,01,4.40
2017,03,15,09,02,4.40
2017,03,15,09,03,4.50
2017,03,15,09,04,4.50
2017,03,15,09,05,4.50
2017,03,15,09,06,4.60
2017,03,15,09,07,4.60
2017,03,15,09,08,4.60
2017,03,15,09,09,4.60
2017,03,15,09,10,4.60
2017,03,15,09,11,4.60
2017,03,15,09,12,4.60
2017,03,15,09,13,4.70
2017,03,15,09,14,4.70
2017,03,15,09,15,4.70
2017,03,15,09,16,4.70
2017,03,15,09,17,4.70
2017,03,15,09,18,4.80
2017,03,15,09,19,4.80
2017,03,15,09,20,4.80
2017,03,15,09,21,4.80
2017,03,15,09,22,4.90
2017,03,15,09,23,4.90
2017,03,15,09,24,4.90
2017,03,15,09,25,5.00
2017,03,15,09,26,5.00
2017,03,15,09,27,5.00
2017,03,15,09,28,5.00
2017,03,15,09,29,5.10
2017,03,15,09,30,5.10
2017,03,15,09,31,5.10
2017,03,15,09,32,5.20
2017,03,15,09,33,5.20
2017,03,15,09,34,5.20
2017,03,15,09,35,5.30
2017,03,15,09,36,5.40
2017,03,15,09,37,5.40
2017,03,15,09,38,5.50
2017,03,15,09,39,5.50
2017,03,15,09,40,5.50
2017,03,15,09,41,5.60
2017,03,15,09,42,5.60
2017,03,15,09,43,5.60
2017,03,15,09,44,5.70
2017,03,15,09,45,5.70
2017,03,15,09,46,5.70
2017,03,15,09,47,5.80
2017,03,15,09,48,5.80
2017,03,15,09,49,5.90
2017,03,15,09,50,5.90
2017,03,15,09,51,6.00
2017,03,15,09,52,6.10
2017,03,15,09,53,6.10
2017,03,15,09,54,6.20
2017,03,15,09,55,6.20
2017,03,15,09,56,6.30
2017,03,15,09,57,6.30
2017,03,15,09,58,6.40
2017,03,15,09,59,6.50
2017,03,15,10,00,6.50
2017,03,15,10,01,6.60
2017,03,15,10,02,6.70
2017,03,15,10,03,6.80
2017,03,15,10,04,6.80
2017,03,15,10,05,6.90
2017,03,15,10,06,6.90
2017,03,15,10,07,7.00
2017,03,15,10,08,7.10
2017,03,15,10,09,7.10
2017,03,15,10,10,7.20
2017,03,15,10,11,7.20
2017,03,15,10,12,7.30
2017,03,15,10,13,7.30
2017,03,15,10,14,7.40
2017,03,15,10,15,7.40
2017,03,15,10,16,7.40
2017,03,15,10,17,7.50
2017,03,15,10,18,7.50
2017,03,15,10,19,7.60
2017,03,15,10,20,7.60
2017,03,15,10,21,7.60
2017,03,15,10,22,7.60
2017,03,15,10,23,7.60
2017,03,15,10,24,7.70
2017,03,15,10,25,7.70
2017,03,15,10,26,7.80
2017,03,15,10,27,7.80
2017,03,15,10,28,7.90
2017,03,15,10,29,7.90
2017,03,15,10,30,8.00
2017,03,15,10,31,8.00
2017,03,15,10,32,8.10
2017,03,15,10,33,8.10
2017,03,15,10,34,8.10
2017,03,15,10,35,8.20
2017,03,15,10,36,8.20
2017,03,15,10,37,8.20
2017,03,15,10,38,8.30
2017,03,15,10,39,8.30
2017,03,15,10,40,8.30
2017,03,15,10,41,8.30
2017,03,15,10,42,8.30
2017,03,15,10,43,8.30
2017,03,15,10,44,8.30
2017,03,15,10,45,8.40
2017,03,15,10,46,8.40
2017,03,15,10,47,8.50
2017,03,15,10,48,8.50
2017,03,15,10,49,8.60
2017,03,15,10,50,8.60
2017,03,15,10,51,8.50
2017,03,15,10,52,8.50
2017,03,15,10,53,8.40
2017,03,15,10,54,8.30
2017,03,15,10,55,8.30
2017,03,15,10,56,8.30
2017,03,15,10,57,8.30
2017,03,15,10,58,8.40
2017,03,15,10,59,8.40
2017,03,15,11,00,8.30
2017,03,15,11,01,8.30
2017,03,15,11,02,8.30
2017,03,15,11,03,8.30
2017,03,15,11,04,8.40
2017,03,15,11,05,8.40
2017,03,15,11,06,8.40
2017,03,15,11,07,8.40
2017,03,15,11,08,8.40
2017,03,15,11,09,8.30
2017,03,15,11,10,8.20
2017,03,15,11,11,8.20
2017,03,15,11,12,8.20
2017,03,15,11,13,8.10
2017,03,15,11,14,8.10
2017,03,15,11,15,8.10
2017,03,15,11,16,8.10
2017,03,15,11,17,8.10
2017,03,15,11,18,8.10
2017,03,15,11,19,8.20
2017,03,15,11,20,8.20
2017,03,15,11,21,8.20
2017,03,15,11,22,8.20
2017,03,15,11,23,8.20
2017,03,15,11,24,8.20
2017,03,15,11,25,8.20
2017,03,15,11,26,8.10
2017,03,15,11,27,8.20
2017,03,15,11,28,8.20
2017,03,15,11,29,8.20
2017,03,15,11,30,8.20
2017,03,15,11,31,8.20
2017,03,15,11,32,8.20
2017,03,15,11,33,8.20
2017,03,15,11,34,8.10
2017,03,15,11,35,8.10
2017,03,15,11,36,8.10
2017,03,15,11,37,8.10
2017,03,15,11,38,8.10
2017,03,15,11,39,8.00
2017,03,15,11,40,7.90
2017,03,15,11,41,7.90
2017,03,15,11,42,7.90
2017,03,15,11,43,7.90
2017,03,15,11,44,7.90
2017,03,15,11,45,7.80
2017,03,15,11,46,7.80
2017,03,15,11,47,7.80
2017,03,15,11,48,7.90
2017,03,15,11,49,7.90
2017,03,15,11,50,8.00
2017,03,15,11,51,8.00
2017,03,15,11,52,8.10
2017,03,15,11,53,8.10
2017,03,15,11,54,8.20
2017,03,15,11,55,8.30
2017,03,15,11,56,8.30
2017,03,15,11,57,8.30
2017,03,15,11,58,8.40
2017,03,15,11,59,8.40
2017,03,15,12,00,8.40
2017,03,15,12,01,8.50
2017,03,15,12,02,8.50
2017,03,15,12,03,8.60
2017,03,15,12,04,8.60
2017,03,15,12,05,8.60
2017,03,15,12,06,8.60
2017,03,15,12,07,8.60
2017,03,15,12,08,8.60
2017,03,15,12,09,8.60
2017,03,15,12,10,8.60
2017,03,15,12,11,8.60
2017,03,15,12,12,8.60
2017,03,15,12,13,8.60
2017,03,15,12,14,8.60
2017,03,15,12,15,8.70
2017,03,15,12,16,8.70
2017,03,15,12,17,8.80
2017,03,15,12,18,8.70
2017,03,15,12,19,8.80
2017,03,15,12,20,8.80
2017,03,15,12,21,8.80
2017,03,15,12,22,8.80
2017,03,15,12,23,8.80
2017,03,15,12,24,8.80
2017,03,15,12,25,8.80
2017,03,15,12,26,8.80
2017,03,15,12,27,8.80
2017,03,15,12,28,8.80
2017,03,15,12,29,8.80
2017,03,15,12,30,8.80
2017,03,15,12,31,8.90
2017,03,15,12,32,8.90
2017,03,15,12,33,8.90
2017,03,15,12,34,8.90
2017,03,15,12,35,8.90
2017,03,15,12,36,8.90
2017,03,15,12,37,8.90
2017,03,15,12,38,8.90
2017,03,15,12,39,9.00
2017,03,15,12,40,9.00
2017,03,15,12,41,9.10
2017,03,15,12,42,9.30
2017,03,15,12,43,9.40
2017,03,15,12,44,9.50
2017,03,15,12,45,9.70
2017,03,15,12,46,9.80
2017,03,15,12,47,9.90
2017,03,15,12,48,10.00
2017,03,15,12,49,10.00
2017,03,15,12,50,10.00
2017,03,15,12,51,10.00
2017,03,15,12,52,9.90
2017,03,15,12,53,9.80
2017,03,15,12,54,9.80
2017,03,15,12,55,9.80
2017,03,15,12,56,9.70
2017,03,15,12,57,9.70
2017,03,15,12,58,9.60
2017,03,15,12,59,9.60
2017,03,15,13,00,9.60
2017,03,15,13,01,9.60
2017,03,15,13,02,9.60
2017,03,15,13,03,9.60
2017,03,15,13,04,9.60
2017,03,15,13,05,9.60
2017,03,15,13,06,9.60
2017,03,15,13,07,9.60
2017,03,15,13,08,9.60
2017,03,15,13,09,9.50
2017,03,15,13,10,9.40
2017,03,15,13,11,9.40
2017,03,15,13,12,9.30
2017,03,15,13,13,9.30
2017,03,15,13,14,9.30
2017,03,15,13,15,9.30
2017,03,15,13,16,9.30
2017,03,15,13,17,9.30
2017,03,15,13,18,9.40
2017,03,15,13,19,9.40
2017,03,15,13,20,9.40
2017,03,15,13,21,9.30
2017,03,15,13,22,9.30
2017,03,15,13,23,9.20
2017,03,15,13,24,9.20
2017,03,15,13,25,9.20
2017,03,15,13,26,9.10
2017,03,15,13,27,9.10
2017,03,15,13,28,9.00
2017,03,15,13,29,9.00
2017,03,15,13,30,8.90
2017,03,15,13,31,8.90
2017,03,15,13,32,8.90
2017,03,15,13,33,8.90
2017,03,15,13,34,8.90
2017,03,15,13,35,8.90
2017,03,15,13,36,9.00
2017,03,15,13,37,9.10
2017,03,15,13,38,9.10
2017,03,15,13,39,9.20
2017,03,15,13,40,9.30
2017,03,15,13,41,9.40
2017,03,15,13,42,9.50
2017,03,15,13,43,9.60
2017,03,15,13,44,9.60
2017,03,15,13,45,9.70
2017,03,15,13,46,9.80
2017,03,15,13,47,9.80
2017,03,15,13,48,9.90
2017,03,15,13,49,9.90
2017,03,15,13,50,9.90
2017,03,15,13,51,9.90
2017,03,15,13,52,10.00
2017,03,15,13,53,10.00
2017,03,15,13,54,9.90
2017,03,15,13,55,9.80
2017,03,15,13,56,9.80
2017,03,15,13,57,9.70
2017,03,15,13,58,9.70
2017,03,15,13,59,9.70
2017,03,15,14,00,9.70
2017,03,15,14,01,9.60
2017,03,15,14,02,9.60
2017,03,15,14,03,9.50
2017,03,15,14,04,9.40
2017,03,15,14,05,9.30
2017,03,15,14,06,9.20
2017,03,15,14,07,9.20
2017,03,15,14,08,9.20
2017,03,15,14,09,9.30
2017,03,15,14,10,9.30
2017,03,15,14,11,9.40
2017,03,15,14,12,9.40
2017,03,15,14,13,9.50
2017,03,15,14,14,9.50
2017,03,15,14,15,9.60
2017,03,15,14,16,9.60
2017,03,15,14,17,9.60
2017,03,15,14,18,9.50
2017,03,15,14,19,9.50
2017,03,15,14,20,9.30
2017,03,15,14,21,9.30
2017,03,15,14,22,9.30
2017,03,15,14,23,9.30
2017,03,15,14,24,9.30
2017,03,15,14,25,9.40
2017,03,15,14,26,9.40
2017,03,15,14,27,9.30
2017,03,15,14,28,9.40
2017,03,15,14,29,9.40
2017,03,15,14,30,9.40
2017,03,15,14,31,9.30
2017,03,15,14,32,9.30
2017,03,15,14,33,9.30
2017,03,15,14,34,9.30
2017,03,15,14,35,9.30
2017,03,15,14,36,9.30
2017,03,15,14,37,9.40
2017,03,15,14,38,9.40
2017,03,15,14,39,9.40
2017,03,15,14,40,9.30
2017,03,15,14,41,9.30
2017,03,15,14,42,9.30
2017,03,15,14,43,9.20
2017,03,15,14,44,9.20
2017,03,15,14,45,9.20
2017,03,15,14,46,9.20
2017,03,15,14,47,9.20
2017,03,15,14,48,9.10
2017,03,15,14,49,9.10
2017,03,15,14,50,9.10
2017,03,15,14,51,9.10
2017,03,15,14,52,9.10
2017,03,15,14,53,9.00
2017,03,15,14,54,9.00
2017,03,15,14,55,8.90
2017,03,15,14,56,8.90
2017,03,15,14,57,8.90
2017,03,15,14,58,8.90
2017,03,15,14,59,8.90
2017,03,15,15,00,8.90
2017,03,15,15,01,8.80
2017,03,15,15,02,8.80
2017,03,15,15,03,8.80
2017,03,15,15,04,8.80
2017,03,15,15,05,8.90
2017,03,15,15,06,8.90
2017,03,15,15,07,8.90
2017,03,15,15,08,8.90
2017,03,15,15,09,8.90
2017,03,15,15,10,8.90
2017,03,15,15,11,9.00
2017,03,15,15,12,9.00
2017,03,15,15,13,9.00
2017,03,15,15,14,9.00
2017,03,15,15,15,9.10
2017,03,15,15,16,9.10
2017,03,15,15,17,9.10
2017,03,15,15,18,9.10
2017,03,15,15,19,9.10
2017,03,15,15,20,9.10
2017,03,15,15,21,9.10
2017,03,15,15,22,9.10
2017,03,15,15,23,9.10
2017,03,15,15,24,9.10
2017,03,15,15,25,9.10
2017,03,15,15,26,9.10
2017,03,15,15,27,9.10
2017,03,15,15,28,9.10
2017,03,15,15,29,9.10
2017,03,15,15,30,9.10
2017,03,15,15,31,9.10
2017,03,15,15,32,9.10
2017,03,15,15,33,9.10
2017,03,15,15,34,9.10
2017,03,15,15,35,9.10
2017,03,15,15,36,9.10
2017,03,15,15,37,9.10
2017,03,15,15,38,9.10
2017,03,15,15,39,9.10
2017,03,15,15,40,9.00
2017,03,15,15,41,9.00
2017,03,15,15,42,9.00
2017,03,15,15,43,8.90
2017,03,15,15,44,8.90
2017,03,15,15,45,8.90
2017,03,15,15,46,8.90
2017,03,15,15,47,8.90
2017,03,15,15,48,8.90
2017,03,15,15,49,8.90
2017,03,15,15,50,8.90
2017,03,15,15,51,8.90
2017,03,15,15,52,8.90
2017,03,15,15,53,8.90
2017,03,15,15,54,8.90
2017,03,15,15,55,9.00
2017,03,15,15,56,9.00
2017,03,15,15,57,8.90
2017,03,15,15,58,9.00
2017,03,15,15,59,9.00
2017,03,15,16,00,9.00
2017,03,15,16,01,9.00
2017,03,15,16,02,9.00
2017,03,15,16,03,9.00
2017,03,15,16,04,8.90
2017,03,15,16,05,8.90
2017,03,15,16,06,8.90
2017,03,15,16,07,8.90
2017,03,15,16,08,8.80
2017,03,15,16,09,8.80
2017,03,15,16,10,8.90
2017,03,15,16,11,8.90
2017,03,15,16,12,8.80
2017,03,15,16,13,8.80
2017,03,15,16,14,8.80
2017,03,15,16,15,8.80
2017,03,15,16,16,8.80
2017,03,15,16,17,8.80
2017,03,15,16,18,8.80
2017,03,15,16,19,8.80
2017,03,15,16,20,8.80
2017,03,15,16,21,8.80
2017,03,15,16,22,8.80
2017,03,15,16,23,8.80
2017,03,15,16,24,8.80
2017,03,15,16,25,8.80
2017,03,15,16,26,8.80
2017,03,15,16,27,8.70
2017,03,15,16,28,8.70
2017,03,15,16,29,8.70
2017,03,15,16,30,8.60
2017,03,15,16,31,8.60
2017,03,15,16,32,8.60
2017,03,15,16,33,8.60
2017,03,15,16,34,8.60
2017,03,15,16,35,8.60
2017,03,15,16,36,8.60
2017,03,15,16,37,8.60
2017,03,15,16,38,8.60
2017,03,15,16,39,8.50
2017,03,15,16,40,8.50
2017,03,15,16,41,8.50
2017,03,15,16,42,8.40
2017,03,15,16,43,8.40
2017,03,15,16,44,8.40
2017,03,15,16,45,8.40
2017,03,15,16,46,8.40
2017,03,15,16,47,8.40
2017,03,15,16,48,8.40
2017,03,15,16,49,8.40
2017,03,15,16,50,8.40
2017,03,15,16,51,8.40
2017,03,15,16,52,8.40
2017,03,15,16,53,8.40
2017,03,15,16,54,8.40
2017,03,15,16,55,8.40
2017,03,15,16,56,8.30
2017,03,15,16,57,8.30
2017,03,15,16,58,8.30
2017,03,15,16,59,8.30
2017,03,15,17,00,8.30
2017,03,15,17,01,8.30
2017,03,15,17,02,8.30
2017,03,15,17,03,8.30
2017,03,15,17,04,8.30
2017,03,15,17,05,8.30
2017,03,15,17,06,8.30
2017,03,15,17,07,8.30
2017,03,15,17,08,8.30
2017,03,15,17,09,8.30
2017,03,15,17,10,8.30
2017,03,15,17,11,8.30
2017,03,15,17,12,8.30
2017,03,15,17,13,8.30
2017,03,15,17,14,8.30
2017,03,15,17,15,8.30
2017,03,15,17,16,8.30
2017,03,15,17,17,8.30
2017,03,15,17,18,8.20
2017,03,15,17,19,8.20
2017,03,15,17,20,8.20
2017,03,15,17,21,8.20
2017,03,15,17,22,8.10
2017,03,15,17,23,8.10
2017,03,15,17,24,8.10
2017,03,15,17,25,8.00
2017,03,15,17,26,8.00
2017,03,15,17,27,8.00
2017,03,15,17,28,8.00
2017,03,15,17,29,8.00
2017,03,15,17,30,8.00
2017,03,15,17,31,7.90
2017,03,15,17,32,7.90
2017,03,15,17,33,7.90
2017,03,15,17,34,7.90
2017,03,15,17,35,7.90
2017,03,15,17,36,7.90
2017,03,15,17,37,7.90
2017,03,15,17,38,7.90
2017,03,15,17,39,7.90
2017,03,15,17,40,7.80
2017,03,15,17,41,7.80
2017,03,15,17,42,7.80
2017,03,15,17,43,7.80
2017,03,15,17,44,7.80
2017,03,15,17,45,7.80
2017,03,15,17,46,7.80
2017,03,15,17,47,7.80
2017,03,15,17,48,7.80
2017,03,15,17,49,7.80
2017,03,15,17,50,7.80
2017,03,15,17,51,7.70
2017,03,15,17,52,7.70
2017,03,15,17,53,7.70
2017,03,15,17,54,7.70
2017,03,15,17,55,7.70
2017,03,15,17,56,7.60
2017,03,15,17,57,7.60
2017,03,15,17,58,7.60
2017,03,15,17,59,7.60
2017,03,15,18,00,7.60
2017,03,15,18,01,7.60
2017,03,15,18,02,7.60
2017,03,15,18,03,7.60
2017,03,15,18,04,7.60
2017,03,15,18,05,7.60
2017,03,15,18,06,7.60